EW4324 Weather Reports


Display with metric or nautical units.
time (UTC)temp
F
wind
direction
speed
MPH
gust
MPH
rain 1hr
in
rain 24hr
in
rain mn
in
humidity
%
barometer
mb
20260506230903 58 180 3.0 8.0 0.01 0.05 0.05 96 1005.8
20260506230003 58 188 2.0 7.0 0.00 0.04 0.04 96 1005.8
20260506225403 58 179 3.0 8.0 0.00 0.04 0.04 96 1005.8
20260506224503 58 181 3.0 8.0 0.00 0.04 0.04 95 1006.0
20260506223603 58 179 2.0 7.0 0.00 0.04 0.04 95 1006.0
20260506222703 58 190 2.0 9.0 0.00 0.04 0.04 95 1006.1
20260506221803 58 175 2.0 7.0 0.00 0.04 0.04 95 1006.1
20260506220903 58 173 3.0 10.0 0.00 0.04 0.04 95 1006.3
20260506220005 58 180 3.0 9.0 0.00 0.04 0.04 95 1006.2
20260506215403 58 174 2.0 9.0 0.00 0.04 0.04 95 1006.3
20260506214503 58 182 3.0 9.0 0.01 0.04 0.04 95 1006.3
20260506213603 58 160 3.0 9.0 0.01 0.04 0.04 95 1006.3
20260506212703 58 190 3.0 8.0 0.01 0.04 0.04 94 1006.4
20260506211803 58 167 3.0 9.0 0.01 0.04 0.04 94 1006.4
20260506210903 58 195 3.0 8.0 0.01 0.04 0.04 94 1006.5
20260506210214 58 182 2.0 7.0 0.01 0.04 0.04 94 1006.6
20260506205613 58 174 2.0 9.0 0.02 0.04 0.04 94 1006.5
20260506204713 58 184 3.0 11.0 0.01 0.03 0.03 94 1006.7
20260506203814 58 183 3.0 8.0 0.01 0.03 0.03 94 1006.9
20260506202703 58 185 4.0 14.0 0.01 0.03 0.03 94 1007.0
20260506202013 58 186 3.0 7.0 0.01 0.03 0.03 94 1007.0
20260506200903 58 176 4.0 10.0 0.02 0.03 0.03 93 1007.0
20260506200004 59 169 3.0 10.0 0.02 0.03 0.03 93 1007.0
20260506195403 59 177 3.0 10.0 0.01 0.02 0.02 93 1007.1
20260506194503 59 183 6.0 14.0 0.01 0.02 0.02 92 1007.2
20260506193603 59 179 5.0 14.0 0.01 0.02 0.02 92 1007.2
20260506192703 60 172 6.0 17.0 0.01 0.02 0.02 91 1007.1
20260506191803 60 182 4.0 15.0 0.02 0.02 0.02 91 1007.2
20260506190903 60 192 4.0 10.0 0.01 0.01 0.01 91 1007.2
20260506190003 60 193 4.0 12.0 0.01 0.01 0.01 90 1007.3
20260506185403 60 176 4.0 15.0 0.01 0.01 0.01 90 1007.2
20260506184503 61 173 3.0 9.0 0.01 0.01 0.01 90 1007.1
20260506183603 61 197 4.0 13.0 0.01 0.01 0.01 88 1007.4
20260506182912 62 194 3.0 13.0 0.01 0.01 0.01 86 1007.5
20260506181803 62 205 3.0 10.0 0.00 0.00 0.00 85 1007.9
20260506180903 63 214 3.0 10.0 0.00 0.00 0.00 82 1007.7
20260506180003 64 207 6.0 16.0 0.00 0.00 0.00 78 1008.0
20260506175403 65 217 8.0 16.0 0.00 0.00 0.00 74 1008.1
20260506174503 66 222 7.0 21.0 0.00 0.00 0.00 70 1008.1
20260506173603 68 204 5.0 21.0 0.00 0.00 0.00 65 1007.9
20260506172703 69 198 5.0 17.0 0.00 0.00 0.00 64 1007.8
20260506171803 69 181 7.0 21.0 0.00 0.00 0.00 62 1007.6
20260506170903 70 182 5.0 15.0 0.00 0.00 0.00 62 1007.7
20260506170004 69 213 6.0 22.0 0.00 0.00 0.00 61 1007.7
20260506165403 69 204 7.0 22.0 0.00 0.00 0.00 61 1007.7
20260506164503 70 187 7.0 20.0 0.00 0.00 0.00 60 1007.9
20260506163812 70 187 5.0 19.0 0.00 0.00 0.00 61 1007.8
20260506162703 69 196 5.0 17.0 0.00 0.00 0.00 62 1008.0
20260506162013 69 189 5.0 14.0 0.00 0.00 0.00 63 1008.2
20260506160903 68 202 6.0 16.0 0.00 0.00 0.00 63 1008.2
20260506160003 68 209 5.0 16.0 0.00 0.00 0.00 64 1008.6
20260506155613 68 209 5.0 16.0 0.00 0.00 0.00 64 1008.6
20260506154503 68 187 5.0 17.0 0.00 0.00 0.00 63 1008.9
20260506153603 68 197 4.0 16.0 0.00 0.00 0.00 65 1008.9
20260506152913 68 214 5.0 17.0 0.00 0.00 0.00 65 1008.9
20260506151803 68 203 5.0 11.0 0.00 0.00 0.00 65 1009.1
20260506150903 68 186 3.0 10.0 0.00 0.00 0.00 66 1009.3
20260506150003 68 201 5.0 15.0 0.00 0.00 0.00 66 1009.4
20260506145403 68 190 5.0 15.0 0.00 0.00 0.00 67 1009.4
20260506144503 68 170 3.0 9.0 0.00 0.00 0.00 70 1009.3
20260506143603 67 184 4.0 14.0 0.00 0.00 0.00 69 1009.5
20260506142913 67 190 5.0 16.0 0.00 0.00 0.00 70 1009.5
20260506141803 66 202 5.0 12.0 0.00 0.00 0.00 71 1009.4
20260506140903 66 211 4.0 13.0 0.00 0.00 0.00 72 1009.4
20260506140003 65 195 5.0 13.0 0.00 0.00 0.00 72 1009.2
20260506135613 65 189 5.0 15.0 0.00 0.00 0.00 72 1009.1
20260506134503 65 184 4.0 9.0 0.00 0.00 0.00 73 1009.3
20260506133603 65 179 3.0 10.0 0.00 0.00 0.00 74 1009.3
20260506132703 65 172 4.0 9.0 0.00 0.00 0.00 74 1009.4
20260506132014 64 180 4.0 12.0 0.00 0.00 0.00 74 1009.5
20260506130904 64 209 5.0 12.0 0.00 0.00 0.00 76 1009.9
20260506130003 63 195 4.0 10.0 0.00 0.00 0.00 77 1010.0
20260506125403 63 210 4.0 10.0 0.00 0.00 0.00 77 1010.0
20260506124503 63 195 4.0 14.0 0.00 0.00 0.00 78 1009.9
20260506123813 63 196 4.0 14.0 0.00 0.00 0.00 78 1009.9
20260506122703 63 202 4.0 11.0 0.00 0.00 0.00 78 1009.8
20260506121803 62 190 5.0 17.0 0.00 0.00 0.00 79 1009.6
20260506120903 62 216 5.0 17.0 0.00 0.00 0.00 80 1010.0
20260506120003 61 209 5.0 15.0 0.00 0.00 0.00 80 1009.9
20260506115403 61 207 5.0 15.0 0.00 0.00 0.00 79 1009.8
20260506114503 61 212 4.0 13.0 0.00 0.00 0.00 80 1009.7
20260506113603 60 201 3.0 9.0 0.00 0.00 0.00 81 1010.0
20260506112914 60 208 3.0 8.0 0.00 0.00 0.00 82 1010.1
20260506112013 60 196 4.0 14.0 0.00 0.00 0.00 82 1010.1
20260506110903 59 213 4.0 11.0 0.00 0.00 0.00 82 1010.4
20260506110003 59 199 5.0 10.0 0.00 0.00 0.00 83 1010.2
20260506105403 59 193 4.0 10.0 0.00 0.00 0.00 83 1010.0
20260506104713 58 183 4.0 10.0 0.00 0.00 0.00 83 1010.1
20260506103812 58 211 4.0 11.0 0.00 0.00 0.00 83 1010.2
20260506102703 58 195 2.0 8.0 0.00 0.00 0.00 84 1010.1
20260506102013 58 185 3.0 9.0 0.00 0.00 0.00 83 1009.9
20260506100903 58 192 4.0 11.0 0.00 0.00 0.00 83 1010.0
20260506100003 58 198 3.0 10.0 0.00 0.00 0.00 83 1010.0
20260506095615 58 193 3.0 11.0 0.00 0.00 0.00 83 1010.0
20260506094506 58 184 3.0 13.0 0.00 0.00 0.00 82 1009.9
20260506093603 58 189 3.0 10.0 0.00 0.00 0.00 82 1010.0
20260506092703 58 204 2.0 8.0 0.00 0.00 0.00 82 1009.8
20260506091803 58 196 2.0 8.0 0.00 0.00 0.00 81 1009.8
20260506090903 58 187 3.0 10.0 0.00 0.00 0.00 81 1009.9
20260506090213 58 178 3.0 10.0 0.00 0.00 0.00 81 1010.0
20260506085403 58 211 3.0 10.0 0.00 0.00 0.00 80 1010.0
20260506084503 59 198 3.0 11.0 0.00 0.00 0.00 80 1010.0
20260506083603 59 207 3.0 7.0 0.00 0.00 0.00 80 1010.1
20260506082703 59 206 2.0 8.0 0.00 0.00 0.00 80 1010.1
20260506081803 59 201 2.0 6.0 0.00 0.00 0.00 79 1010.1
20260506080903 59 216 3.0 9.0 0.00 0.00 0.00 79 1010.1
20260506072703 60 190 3.0 9.0 0.00 0.00 0.00 77 1010.1
20260506071803 60 204 3.0 10.0 0.00 0.00 0.00 76 1010.0
20260506070903 60 204 3.0 10.0 0.00 0.00 0.00 76 1009.9
20260506070212 60 190 4.0 10.0 0.00 0.00 0.00 75 1009.9
20260506062013 62 213 3.0 11.0 0.00 0.00 0.00 72 1009.8
20260506060903 62 208 4.0 12.0 0.00 0.00 0.00 71 1009.7
20260506050903 63 199 5.0 13.0 0.00 0.00 0.00 67 1010.0
20260506044503 63 203 5.0 14.0 0.00 0.00 0.00 65 1010.1
20260506043603 63 201 4.0 17.0 0.00 0.00 0.00 65 1010.0
20260506042703 63 204 5.0 12.0 0.00 0.00 0.00 65 1010.0
20260506041803 63 201 5.0 19.0 0.00 0.00 0.00 65 1010.1
20260506040903 63 197 4.0 17.0 0.00 0.00 0.00 65 1010.0
20260506040005 63 209 6.0 16.0 0.00 0.00 0.00 64 1010.1
20260506035403 63 215 6.0 19.0 0.00 0.00 0.00 65 1010.1
20260506034503 63 220 4.0 9.0 0.00 0.00 0.00 65 1010.2
20260506033603 63 201 4.0 14.0 0.00 0.00 0.00 65 1010.1
20260506032703 63 209 5.0 14.0 0.00 0.00 0.00 65 1010.0
20260506032014 63 222 4.0 14.0 0.00 0.00 0.00 65 1010.0
20260506030903 63 197 5.0 13.0 0.00 0.00 0.00 64 1010.1
20260506030004 63 207 4.0 11.0 0.00 0.00 0.00 64 1010.1
20260506025403 63 208 3.0 9.0 0.00 0.00 0.00 63 1010.0
20260506024503 63 199 4.0 11.0 0.00 0.00 0.00 63 1010.0
20260506023603 63 204 3.0 11.0 0.00 0.00 0.00 62 1009.9
20260506022912 64 200 3.0 14.0 0.00 0.00 0.00 62 1009.9
20260506021803 64 185 4.0 15.0 0.00 0.00 0.00 61 1010.0
20260506020903 64 209 4.0 12.0 0.00 0.00 0.00 61 1009.9
20260506020004 64 202 3.0 9.0 0.00 0.00 0.00 62 1010.0
20260506015403 64 222 3.0 9.0 0.00 0.00 0.00 62 1009.9
20260506014503 65 214 3.0 13.0 0.00 0.00 0.00 61 1009.8
20260506013603 65 200 3.0 10.0 0.00 0.00 0.00 60 1009.7
20260506012703 65 206 2.0 9.0 0.00 0.00 0.00 60 1009.5
20260506011803 66 199 4.0 13.0 0.00 0.00 0.00 59 1009.3
20260506010903 66 210 6.0 15.0 0.00 0.00 0.00 58 1009.1
20260506010003 66 211 7.0 15.0 0.00 0.00 0.00 57 1009.1
20260506005403 67 207 6.0 15.0 0.00 0.00 0.00 57 1009.0
20260506004504 67 208 5.0 17.0 0.00 0.00 0.00 56 1008.9
20260506003603 67 218 5.0 15.0 0.00 0.00 0.00 56 1008.9
20260506002914 68 214 6.0 16.0 0.00 0.00 0.00 55 1008.8
20260506001803 68 203 5.0 16.0 0.00 0.00 0.00 54 1008.4
20260506000903 68 188 6.0 17.0 0.00 0.00 0.00 53 1008.4
20260506000004 69 196 5.0 16.0 0.00 0.00 0.00 52 1008.3
20260505235403 69 212 5.0 18.0 0.00 0.00 0.00 52 1008.1
20260505234504 70 195 6.0 18.0 0.00 0.00 0.00 50 1008.0
20260505233814 70 198 6.0 15.0 0.00 0.00 0.00 49 1007.9
20260505232703 71 186 7.0 19.0 0.00 0.00 0.00 48 1007.7
20260505231803 72 200 7.0 20.0 0.00 0.00 0.00 48 1007.6